Погода в Шепетовке

Погода в Шепетовке : погода сейчас, прогноз погоды и архив. Всё, что Вы хотите узнать о погоде в Шепетовке!

Хотите узнать прогноз погоды в Шепетовке? Тогда Вам сюда: Погода в Шепетовке

Поиск расширенной информации на нашем сайте:

Другие новости

Новости СМИ2

Главная страница сайта

Новости сайта

03.07.2017

Напоминаем, что на нашем специализированном сайте Метеоцентр.Азия вы можете получить высокодетализированные автоматические прогнозы погоды по пунктам России, СНГ и мира в авиационном формате (включающие направление и скорость ветра, видимость, явления погоды, количество и форму облачности, нижнюю и верхнюю границу облачности).

Рекомендуем: татарское изготовление кухонь по цене интернет магазина

Погода в Шепетовке - сегодня

Время (UTC), дата Ветер
(°,м/с) 
Видим.   Явления Облачность Т
(°С)
Тd
(°С)
f(%) Тe
(°С)
Pmin
(гПа)
dP
(гПа)
Po
(мм)
O2
(г/м3)
Тmin Tmax R s Состояние
почвы
15 21.09.17 270 (З) 4000 м  гроза, ливневой дождь  10/10 480 м кучево-дожд. 
[Cb calv]
+16.4 +14.7 90 +26  1008.8  0.5  733  275           
18 21.09.17 тихо ()   4000 м  гроза, ливневой дождь  10/10 300 м кучево-дожд. 
[Cb calv]
+15 +14.1 94 +23  1009.3  0.3  733  277    +19     
21 21.09.17 тихо ()   0500 м  туман{гроза, ливн. осадки}  ?/?  
+14.8 +14.8 100 +24  1009.9  0.5  733  277           
00 22.09.17 270 (З) 0500 м  туман{гроза, ливн. осадки}  ?/?  
+14.6 +14.6 100 +25  1011.1  1.2  734  278      0.4     
03 22.09.17 300 (СЗ) 0500 м  туман  ?/?  
+13.6 +13.6 100 +21  1011.9  0.6  734  279           
06 22.09.17 270 (З) 4000 м  слаб. ливневой дождь{туман}  10/10 300 м кучево-дожд. 
[Cb cap]
+13.4 +13 97 +20  1012.1  0.2  735  280  +13.2       
09 22.09.17 340 (С) 2000 м  дымка{ливн. осадки}  10/10 240 м 
[St]
+14.2 +13.8 97 +21  1012.9  0.9  735  279           
12 22.09.17 190 (Ю) 4000 м  в посл. час ливневой дождь  10/10 360 м кучево-дожд. 
[Cb cap]
+15.2 +14.7 97 +25  1011.6  -1.2  734  277           
15 22.09.17 270 (З) 10 км  {ливн. осадки}  10/10 400 м кучево-дожд. 
[Cb cap]
+14.2 +13.7 97 +21  1010.6  -1.1  734  278           
18 22.09.17 260 (З) н/о  {ливн. осадки}  10/10 300 м 
[Sc]
+14.4 +13.9 97 +22  1010  -0.5  733  278    +15.7     
21 22.09.17 350 (С) 0500 м  туман  ?/?  
+14.4 +14.4 100 +23  1009.3  -0.7  733  277           
00 23.09.17 120 (ЮВ) 2000 м  дымка{туман}  10/10 400 м 
[Sc]
+15.2 +14 93 +23  1012.3  735  278           
03 23.09.17 080 (В) 4000 м  дымка  10/10 420 м 
[Sc]
+13.7 +12 89 +18  1014.4  1.8  736  280           
06 23.09.17 110 (В) 10 км    9/9 450 м 
[Sc]
+13.3 +11.6 89 +17  1016  1.5  737  281  +13.3         
09 23.09.17 110 (В) 20000 м    10/10 480 м 
[Sc]
+14.2 +9.8 75 +14  1018.2  2.3  739  281           
12 23.09.17 120 (ЮВ) 20000 м    8/8 300 м 
[Sc]
+17.6 +10.4 63 +19  1018.8  0.9  740  278           
15 23.09.17 100 (В) 10 км    8/6 600 м средняя, верхняя 
[Sc|As trans|Cs]
+16.2 +10.4 68 +19  1019.5  0.5  740  280           
18 23.09.17 080 (В) 4000 м  слаб. ливневой дождь  10/10 300 м кучево-дожд. 
[Cb cap]
+14.6 +13.5 93 +20  1020.6  741  281    +17.6  0.4     
21 23.09.17 070 (В) н/о  {ливн. осадки}  10/10 420 м кучево-дожд. 
[Cb cap]
+12.5 +11.6 94 +16  1020.9  741  283           
00 24.09.17 070 (В) н/о  в посл. час ливневой дождь  10/10 420 м кучево-дожд. 
[Cb cap]
+12 +11.2 95 +15  1020.8  -0.2  741  284           
03 24.09.17 050 (СВ) 4000 м  дымка  10/6 450 м средняя 
[Sc|Ac As]
+11.5 +10.9 96 +16  1020.1  -0.7  740  284           
06 24.09.17 050 (СВ) 4000 м  дымка  10/10 300 м 
[Sc]
+11.3 +10.7 96 +13  1020.6  0.5  741  285  +11.1       
09 24.09.17 060 (СВ) 4000 м  слаб. ливневой дождь  10/10 420 м кучево-дожд. 
[Cb cap]
+12.4 +11.7 95 +16  1020.5  741  283           
12 24.09.17 070 (В) 4000 м  слаб. ливневой дождь  10/10 420 м кучево-дожд. 
[Cb cap]
+12.2 +11.6 96 +16  1020.7  0.2  741  283           
15 24.09.17 080 (В) 4000 м  дымка{ливн. осадки}  10/10 450 м кучево-дожд. 
[Cb cap]
+12.8 +12.2 96 +16  1022  1.3  742  283           
Время (UTC), дата Ветер
(°,м/с) 
Видим.   Явления Облачность Т
(°С)
Тd
(°С)
f(%) Тe
(°С)
Pmin
(гПа)
dP
(гПа)
Po
(мм)
O2
(г/м3)
Тmin Tmax R s Состояние
почвы

Для получения пояснительной информации подведите курсор к названию столбца.

ПОГОДА в Шепетовке - архив

Всё, что Вы хотите узнать о погоде в Шепетовке - удобно и подробно!

Выберите нужную дату (начиная с 1 января 2015* года) и нажмите кнопку "Найти".
Будут отображены архивные сводки погоды по пункту Шепетовка, начиная с указанной даты.


Отображать данные в формате CSV (для использования в таблицах Excel)


Внимание! Наш архив погоды предназначен исключительно для личного некоммерческого использования в познавательных целях. Если Вам необходимы официальные справки о состоянии погоды (для производственных, юридических, коммерческих и т.п. целей), обращайтесь в органы Росгидромета.

*Примечание: данная дата относится к архиву по метеостанциям СССР (Россия, СНГ, Балтия).
Архив по метеостанциям Зарубежной Европы и Азии (кроме Китая) хранится 10 дней, по другим регионам земного шара (Китай, Африка, Америка, Австралия, Океания) - 1 день.

Шепетовка - район местоположения метеостанции


Название, широта, долгота, высота метеостанции:
Шепетовка 50.2°ш. 27°д. 278 м над ур. моря [Украина]

Дополнительная информация

В oтличие oт бoльшинства пoгoдных сайтoв мы публикуем пoдрoбную метеoинфoрмацию в детальнoм прoфессиoнальнoм фoрмате.

Характеристики температуры и влажнoсти вoздуха измеряются на высoте 2 м в тени вдали oт зданий и деревьев.
Скoрoсть ветра измеряется на высoте 10 м (на урoвне рoста челoвека скoрoсть ветра ниже в 1.5-2 раза). Если метеoстанция нахoдится в гoрoде или в лесу, тo скoрoсть ветра занижена на 2-4 м/с пo сравнению с oткрытым местoм. Скoрoсть ветра над акватoриями крупных рек и oзёр, а также на вершинах хoлмoв на 2-5 м/с выше, чем в oбычных услoвиях.
Атмoсфернoе давление в разных тoчках местнoсти мoжет значительнo oтличаться oт давления на метеoстанции, в зависимoсти oт услoвий рельефа (при пoдъёме на 10 м давление пoнижается примернo на 1 мм рт.ст.).